User: anonymous   Login
Location: PFO Observatory
(45.2937°N, 66.0991°W)
Time: 22:49:35
(UTC-03:00)
Language:

Cosmos 1151 Rocket - Orbit

View from above orbital plane
View from above orbital plane
View from above satellite
View from above satellite

Ground track
Ground track

The orbit data is extracted from the following two-line orbital elements,

1 11672U 80005B   14303.53260131  .00000601  00000-0  63797-4 0  1672
2 11672 082.5154 265.8177 0015381 263.3503 208.7257 14.87303057880577
Epoch (UTC): 30 October 2014 12:46:56
Eccentricity: 0.0015381
inclination: 82.5154°
perigee height: 595 km
apogee height: 617 km
right ascension of ascending node: 265.8177°
argument of perigee: 263.3503°
revolutions per day: 14.87303057
mean anomaly at epoch: 208.7257°
orbit number at epoch: 88057

The dashed part of the orbit path shows where the satellite is in the earth's shadow,  

DLR